Ozark, AL

8:56 PM CST on December 11, 2017 (GMT -0600)
Cairns Army Air Field

Weather History for KOZR - November, 2012

Change the Weather History Date:

Sunday, November 11, 2012

  Actual Average Record
Temperature  
Mean Temperature 60 °F -  
Max Temperature 76 °F 67 °F 79 °F (2010)
Min Temperature 43 °F 46 °F 32 °F (1996)
Degree Days  
Heating Degree Days 6    
Growing Degree Days 10 (Base 50)    
Moisture  
Dew Point 49 °F    
Average Humidity 68    
Maximum Humidity 89    
Minimum Humidity 43    
Precipitation  
Precipitation 0.00 in - - ()
Sea Level Pressure  
Sea Level Pressure 30.28 in    
Wind  
Wind Speed 6 mph (East)    
Max Wind Speed 14 mph    
Max Gust Speed 22 mph    
Visibility 10 miles    
Events      
Averages and records for this station are not official NWS values.
T = Trace of Precipitation, MM = Missing Value Source: NWS Daily Summary

Daily Weather History Graph

Daily Weather History Graph

Search for Another Location

Airport or City:

Trip Planner

Search our weather history database for the weather conditions in past years. The results will help you decide how hot, cold, wet, or windy it might be!

Date:

Astronomy

Nov. 11, 2012 Rise Set
Actual Time 6:07 AM CST 4:46 PM CST
Civil Twilight 5:41 AM CST 5:11 PM CST
Nautical Twilight 5:12 AM CST 5:40 PM CST
Astronomical Twilight 4:43 AM CST 6:09 PM CST
Moon 3:28 AM CST (11/11) 3:03 PM CST (11/11)
Length of Visible Light 11h 30m
Length of Day
10h 39m
Waning Crescent, 7% of the Moon is Illuminated
Nov 11
Waning Crescent
Nov 13
New
Nov 20
First Quarter
Nov 28
Full
Dec 6
Last Quarter

Hourly Weather History & Observations

Time (CST) Temp. Windchill Dew Point Humidity Pressure Visibility Wind Dir Wind Speed Gust Speed Precip Events Conditions
12:55 AM 44.6 °F 41.4 °F 39.9 °F 84% 30.28 in 10.0 mi NE 5.8 mph - N/A   Clear
1:55 AM 44.1 °F 40.8 °F 39.4 °F 84% 30.28 in 10.0 mi NE 5.8 mph - N/A   Clear
2:55 AM 44.2 °F 40.3 °F 39.0 °F 82% 30.28 in 10.0 mi ENE 6.9 mph - N/A   Clear
3:55 AM 43.9 °F 39.9 °F 39.0 °F 83% 30.27 in 10.0 mi ENE 6.9 mph - N/A   Clear
4:55 AM 44.6 °F 41.4 °F 39.7 °F 83% 30.28 in 10.0 mi ENE 5.8 mph - N/A   Clear
5:55 AM 45.7 °F 43.4 °F 41.9 °F 87% 30.31 in 10.0 mi ENE 4.6 mph - N/A   Clear
6:55 AM 49.1 °F - 45.9 °F 89% 30.33 in 10.0 mi ENE 4.6 mph - N/A   Clear
7:55 AM 55.6 °F - 49.1 °F 79% 30.33 in 10.0 mi East 5.8 mph - N/A   Clear
8:55 AM 64.9 °F - 53.1 °F 65% 30.34 in 10.0 mi East 9.2 mph - N/A   Clear
9:55 AM 70.2 °F - 53.4 °F 55% 30.35 in 10.0 mi ESE 11.5 mph - N/A   Clear
10:55 AM 73.6 °F - 51.8 °F 46% 30.32 in 10.0 mi ESE 8.1 mph 19.6 mph N/A   Clear
11:55 AM 75.0 °F - 51.8 °F 44% 30.29 in 10.0 mi ESE 13.8 mph 21.9 mph N/A   Mostly Cloudy
12:55 PM 73.8 °F - 52.7 °F 48% 30.27 in 10.0 mi SE 10.4 mph - N/A   Mostly Cloudy
1:55 PM 76.5 °F - 52.5 °F 43% 30.25 in 10.0 mi SE 11.5 mph - N/A   Scattered Clouds
2:55 PM 76.1 °F - 52.0 °F 43% 30.25 in 10.0 mi SSE 11.5 mph - N/A   Clear
3:55 PM 73.0 °F - 52.9 °F 49% 30.25 in 10.0 mi SSE 6.9 mph - N/A   Mostly Cloudy
4:55 PM 70.2 °F - 53.1 °F 55% 30.24 in 10.0 mi ESE 4.6 mph - N/A   Mostly Cloudy
5:55 PM 66.7 °F - 52.7 °F 61% 30.25 in 10.0 mi East 4.6 mph - N/A   Clear
6:55 PM 63.3 °F - 52.0 °F 66% 30.26 in 10.0 mi Calm Calm - N/A   Clear
7:55 PM 59.7 °F - 52.2 °F 76% 30.25 in 10.0 mi ENE 4.6 mph - N/A   Clear
8:55 PM 59.4 °F - 52.5 °F 78% 30.25 in 10.0 mi East 3.5 mph - N/A   Clear
9:55 PM 59.4 °F - 52.7 °F 79% 30.25 in 10.0 mi Calm Calm - N/A   Scattered Clouds
10:55 PM 59.2 °F - 53.2 °F 81% 30.26 in 10.0 mi ENE 3.5 mph - N/A   Overcast
11:55 PM 61.9 °F - 54.7 °F 77% 30.25 in 10.0 mi ESE 5.8 mph - N/A   Overcast